| time (UTC) | temp C | wind direction | speed KPH | gust KPH | rain 1hr cm | rain 24hr cm | rain mn cm | humidity % | barometer mb |
| 20260504202521 | 19 | 226 | 17.7 | 30.6 | 0.00 | 0.00 | 0.00 | 40 | 1006.1 |
| 20260504202020 | 19 | 235 | 17.7 | 29.0 | 0.00 | 0.00 | 0.00 | 40 | 1005.8 |
| 20260504201519 | 19 | 221 | 17.7 | 30.6 | 0.00 | 0.00 | 0.00 | 42 | 1005.9 |
| 20260504201019 | 18 | 300 | 17.7 | 30.6 | 0.00 | 0.00 | 0.00 | 41 | 1005.9 |
| 20260504200518 | 18 | 273 | 6.4 | 24.1 | 0.00 | 0.00 | 0.00 | 42 | 1006.0 |
| 20260504200021 | 19 | 244 | 9.7 | 24.1 | 0.00 | 0.00 | 0.00 | 42 | 1006.1 |
| 20260504195520 | 19 | 249 | 12.9 | 24.1 | 0.00 | 0.00 | 0.00 | 42 | 1006.1 |
| 20260504195017 | 18 | 250 | 14.5 | 27.4 | 0.00 | 0.00 | 0.00 | 44 | 1006.3 |
| 20260504194516 | 18 | 238 | 11.3 | 30.6 | 0.00 | 0.00 | 0.00 | 44 | 1006.3 |
| 20260504194015 | 18 | 201 | 6.4 | 32.2 | 0.00 | 0.00 | 0.00 | 43 | 1006.4 |
| 20260504193515 | 19 | 211 | 14.5 | 32.2 | 0.00 | 0.00 | 0.00 | 42 | 1006.2 |
| 20260504193015 | 19 | 229 | 9.7 | 33.8 | 0.00 | 0.00 | 0.00 | 43 | 1006.3 |
| 20260504192513 | 19 | 218 | 16.1 | 37.0 | 0.00 | 0.00 | 0.00 | 42 | 1006.2 |
| 20260504192013 | 19 | 219 | 11.3 | 37.0 | 0.00 | 0.00 | 0.00 | 42 | 1006.3 |
| 20260504191510 | 19 | 286 | 14.5 | 40.2 | 0.00 | 0.00 | 0.00 | 42 | 1006.2 |
| 20260504191010 | 19 | 178 | 19.3 | 40.2 | 0.00 | 0.00 | 0.00 | 43 | 1006.2 |
| 20260504190509 | 19 | 179 | 14.5 | 29.0 | 0.00 | 0.00 | 0.00 | 44 | 1006.3 |
| 20260504190007 | 18 | 233 | 14.5 | 24.1 | 0.00 | 0.00 | 0.00 | 43 | 1006.3 |
| 20260504185506 | 17 | 233 | 8.0 | 29.0 | 0.00 | 0.00 | 0.00 | 45 | 1006.5 |
| 20260504185005 | 18 | 221 | 9.7 | 29.0 | 0.00 | 0.00 | 0.00 | 44 | 1006.5 |
| 20260504184505 | 17 | 241 | 9.7 | 24.1 | 0.00 | 0.00 | 0.00 | 45 | 1006.4 |
| 20260504184005 | 17 | 296 | 9.7 | 25.7 | 0.00 | 0.00 | 0.00 | 48 | 1006.7 |
| 20260504183504 | 17 | 262 | 14.5 | 25.7 | 0.00 | 0.00 | 0.00 | 46 | 1006.6 |
| 20260504183009 | 17 | 197 | 11.3 | 25.7 | 0.00 | 0.00 | 0.00 | 45 | 1006.5 |
| 20260504182503 | 17 | 248 | 11.3 | 25.7 | 0.00 | 0.00 | 0.00 | 47 | 1006.7 |
| 20260504182002 | 17 | 201 | 11.3 | 24.1 | 0.00 | 0.00 | 0.00 | 47 | 1006.7 |
| 20260504181501 | 17 | 251 | 8.0 | 22.5 | 0.00 | 0.00 | 0.00 | 47 | 1006.8 |
| 20260504181100 | 17 | 167 | 4.8 | 22.5 | 0.00 | 0.00 | 0.00 | 49 | 1006.8 |
| 20260504180601 | 16 | 219 | 8.0 | 22.5 | 0.00 | 0.00 | 0.00 | 52 | 1006.9 |
| 20260504180101 | 16 | 340 | 9.7 | 22.5 | 0.00 | 0.00 | 0.00 | 51 | 1006.9 |
| 20260504175559 | 15 | 182 | 8.0 | 27.4 | 0.00 | 0.00 | 0.00 | 51 | 1007.0 |
| 20260504175100 | 15 | 244 | 9.7 | 32.2 | 0.00 | 0.00 | 0.00 | 50 | 1007.0 |
| 20260504174602 | 15 | 202 | 9.7 | 32.2 | 0.00 | 0.00 | 0.00 | 50 | 1007.1 |
| 20260504174059 | 15 | 264 | 16.1 | 32.2 | 0.00 | 0.00 | 0.00 | 49 | 1007.1 |
| 20260504173603 | 15 | 257 | 6.4 | 25.7 | 0.00 | 0.00 | 0.00 | 50 | 1007.1 |
| 20260504173100 | 16 | 288 | 6.4 | 25.7 | 0.00 | 0.00 | 0.00 | 49 | 1007.1 |
| 20260504172558 | 16 | 290 | 8.0 | 24.1 | 0.00 | 0.00 | 0.00 | 50 | 1007.1 |
| 20260504172058 | 16 | 225 | 11.3 | 32.2 | 0.00 | 0.00 | 0.00 | 48 | 1007.0 |
| 20260504171558 | 16 | 267 | 14.5 | 32.2 | 0.00 | 0.00 | 0.00 | 49 | 1007.0 |
| 20260504171058 | 16 | 265 | 4.8 | 22.5 | 0.00 | 0.00 | 0.00 | 48 | 1007.0 |
| 20260504170558 | 16 | 261 | 6.4 | 22.5 | 0.00 | 0.00 | 0.00 | 48 | 1007.0 |
| 20260504151052 | 16 | 244 | 12.9 | 29.0 | 0.00 | 0.00 | 0.00 | 46 | 1007.3 |
| 20260504150548 | 16 | 189 | 16.1 | 35.4 | 0.00 | 0.00 | 0.00 | 47 | 1007.3 |
| 20260504141038 | 13 | 211 | 12.9 | 25.7 | 0.00 | 0.00 | 0.00 | 53 | 1007.7 |
| 20260504140537 | 13 | 186 | 12.9 | 29.0 | 0.00 | 0.00 | 0.00 | 54 | 1007.8 |
| 20260504130525 | 10 | 221 | 3.2 | 14.5 | 0.00 | 0.00 | 0.00 | 69 | 1008.8 |
| 20260504110502 | 5 | 219 | 0.0 | 3.2 | 0.00 | 0.00 | 0.00 | 82 | 1009.9 |
| 20260504100554 | 4 | 219 | 0.0 | 3.2 | 0.00 | 0.00 | 0.00 | 77 | 1009.4 |
| 20260504081544 | 4 | 219 | 0.0 | 1.6 | 0.00 | 0.00 | 0.00 | 68 | 1009.5 |
| 20260504081044 | 4 | 219 | 0.0 | 1.6 | 0.00 | 0.00 | 0.00 | 67 | 1009.5 |
| 20260504080543 | 4 | 219 | 0.0 | 1.6 | 0.00 | 0.00 | 0.00 | 67 | 1009.6 |
| 20260504050526 | 3 | 240 | 3.2 | 6.4 | 0.00 | 0.00 | 0.00 | 69 | 1009.5 |
| 20260504045524 | 3 | 223 | 4.8 | 9.7 | 0.00 | 0.00 | 0.00 | 69 | 1009.4 |
| 20260504045023 | 3 | 228 | 3.2 | 8.0 | 0.00 | 0.00 | 0.00 | 68 | 1009.4 |
| 20260504044523 | 3 | 227 | 3.2 | 6.4 | 0.00 | 0.00 | 0.00 | 68 | 1009.5 |
| 20260504044021 | 3 | 234 | 3.2 | 6.4 | 0.00 | 0.00 | 0.00 | 68 | 1009.5 |
| 20260504043521 | 3 | 234 | 3.2 | 8.0 | 0.00 | 0.00 | 0.00 | 67 | 1009.5 |
| 20260504043027 | 3 | 242 | 3.2 | 8.0 | 0.00 | 0.00 | 0.00 | 67 | 1009.4 |
| 20260504042518 | 3 | 238 | 3.2 | 8.0 | 0.00 | 0.00 | 0.00 | 66 | 1009.4 |
| 20260504042017 | 3 | 236 | 3.2 | 11.3 | 0.00 | 0.00 | 0.00 | 65 | 1009.3 |
| 20260504041530 | 3 | 246 | 3.2 | 11.3 | 0.00 | 0.00 | 0.00 | 65 | 1009.3 |
| 20260504041015 | 4 | 237 | 4.8 | 11.3 | 0.00 | 0.00 | 0.00 | 63 | 1009.3 |
| 20260504040514 | 4 | 213 | 4.8 | 9.7 | 0.00 | 0.00 | 0.00 | 62 | 1009.3 |
| 20260504040013 | 4 | 259 | 3.2 | 9.7 | 0.00 | 0.00 | 0.00 | 62 | 1009.2 |
| 20260504035513 | 4 | 213 | 1.6 | 4.8 | 0.00 | 0.03 | 0.00 | 63 | 1009.2 |
| 20260504035014 | 3 | 267 | 1.6 | 4.8 | 0.00 | 0.03 | 0.00 | 64 | 1009.2 |
| 20260504034517 | 4 | 267 | 1.6 | 4.8 | 0.00 | 0.03 | 0.00 | 64 | 1009.3 |
| 20260504034012 | 4 | 267 | 0.0 | 4.8 | 0.00 | 0.03 | 0.00 | 63 | 1009.2 |
| 20260504033511 | 4 | 267 | 0.0 | 6.4 | 0.00 | 0.03 | 0.00 | 64 | 1009.2 |
| 20260504033014 | 4 | 267 | 3.2 | 6.4 | 0.00 | 0.03 | 0.00 | 63 | 1009.3 |
| 20260504032511 | 4 | 231 | 1.6 | 6.4 | 0.00 | 0.03 | 0.00 | 64 | 1009.3 |
| 20260504032011 | 4 | 227 | 3.2 | 6.4 | 0.00 | 0.03 | 0.00 | 64 | 1009.2 |
| 20260504031629 | 4 | 257 | 1.6 | 6.4 | 0.00 | 0.03 | 0.00 | 64 | 1009.2 |
| 20260504031011 | 4 | 257 | 3.2 | 6.4 | 0.00 | 0.03 | 0.00 | 64 | 1009.2 |
| 20260504030510 | 4 | 257 | 1.6 | 6.4 | 0.00 | 0.03 | 0.00 | 64 | 1009.3 |
| 20260504030010 | 4 | 257 | 1.6 | 6.4 | 0.00 | 0.03 | 0.00 | 64 | 1009.3 |
| 20260504025510 | 4 | 257 | 1.6 | 6.4 | 0.00 | 0.20 | 0.00 | 64 | 1009.3 |
| 20260504025010 | 4 | 223 | 3.2 | 6.4 | 0.00 | 0.20 | 0.00 | 63 | 1009.4 |
| 20260504024510 | 5 | 252 | 3.2 | 6.4 | 0.00 | 0.20 | 0.00 | 63 | 1009.3 |
| 20260504024010 | 5 | 214 | 3.2 | 6.4 | 0.00 | 0.20 | 0.00 | 62 | 1009.3 |
| 20260504023509 | 5 | 205 | 3.2 | 8.0 | 0.00 | 0.20 | 0.00 | 62 | 1009.4 |
| 20260504023009 | 5 | 209 | 1.6 | 8.0 | 0.00 | 0.20 | 0.00 | 61 | 1009.4 |
| 20260504022508 | 5 | 252 | 3.2 | 9.7 | 0.00 | 0.20 | 0.00 | 62 | 1009.4 |
| 20260504022009 | 5 | 248 | 3.2 | 9.7 | 0.00 | 0.20 | 0.00 | 62 | 1009.4 |
| 20260504021508 | 5 | 240 | 1.6 | 6.4 | 0.00 | 0.20 | 0.00 | 62 | 1009.4 |
| 20260504021008 | 5 | 240 | 1.6 | 6.4 | 0.00 | 0.20 | 0.00 | 62 | 1009.4 |
| 20260504020611 | 5 | 240 | 3.2 | 6.4 | 0.00 | 0.20 | 0.00 | 62 | 1009.4 |
| 20260504020015 | 5 | 240 | 3.2 | 6.4 | 0.00 | 0.23 | 0.00 | 61 | 1009.4 |
| 20260504015508 | 5 | 255 | 3.2 | 4.8 | 0.00 | 0.23 | 0.00 | 61 | 1009.3 |
| 20260504015010 | 5 | 252 | 3.2 | 6.4 | 0.00 | 0.23 | 0.00 | 61 | 1009.3 |
| 20260504014513 | 5 | 252 | 3.2 | 8.0 | 0.00 | 0.23 | 0.00 | 62 | 1009.2 |
| 20260504014006 | 5 | 252 | 3.2 | 8.0 | 0.00 | 0.23 | 0.00 | 62 | 1009.3 |
| 20260504013506 | 5 | 252 | 3.2 | 11.3 | 0.00 | 0.23 | 0.00 | 62 | 1009.4 |
| 20260504013006 | 5 | 247 | 4.8 | 11.3 | 0.00 | 0.23 | 0.00 | 61 | 1009.3 |
| 20260504012506 | 5 | 229 | 3.2 | 12.9 | 0.00 | 0.23 | 0.00 | 62 | 1009.3 |
| 20260504012006 | 5 | 269 | 4.8 | 12.9 | 0.00 | 0.23 | 0.00 | 62 | 1009.2 |
| 20260504011506 | 5 | 238 | 3.2 | 11.3 | 0.00 | 0.23 | 0.00 | 62 | 1009.2 |
| 20260504011006 | 5 | 252 | 4.8 | 11.3 | 0.00 | 0.23 | 0.00 | 62 | 1009.2 |
| 20260504010508 | 5 | 234 | 4.8 | 12.9 | 0.00 | 0.23 | 0.00 | 62 | 1009.1 |
| 20260504010006 | 5 | 225 | 4.8 | 9.7 | 0.00 | 0.25 | 0.00 | 63 | 1009.0 |
| 20260504005505 | 5 | 257 | 4.8 | 11.3 | 0.00 | 0.25 | 0.00 | 63 | 1009.0 |
| 20260504005005 | 5 | 257 | 1.6 | 11.3 | 0.00 | 0.25 | 0.00 | 63 | 1009.0 |
| 20260504004516 | 5 | 232 | 3.2 | 14.5 | 0.00 | 0.25 | 0.00 | 62 | 1008.9 |
| 20260504004004 | 5 | 218 | 4.8 | 14.5 | 0.00 | 0.25 | 0.00 | 62 | 1008.9 |
| 20260504003504 | 5 | 229 | 3.2 | 11.3 | 0.00 | 0.25 | 0.00 | 61 | 1008.8 |
| 20260504003004 | 6 | 243 | 4.8 | 14.5 | 0.00 | 0.25 | 0.00 | 61 | 1008.8 |
| 20260504002504 | 6 | 255 | 4.8 | 14.5 | 0.00 | 0.25 | 0.00 | 60 | 1008.7 |
| 20260504002004 | 6 | 214 | 4.8 | 14.5 | 0.00 | 0.25 | 0.00 | 59 | 1008.7 |
| 20260504001504 | 6 | 204 | 4.8 | 14.5 | 0.00 | 0.25 | 0.00 | 59 | 1008.5 |
| 20260504001004 | 6 | 208 | 4.8 | 14.5 | 0.00 | 0.25 | 0.00 | 59 | 1008.5 |
| 20260504000505 | 6 | 234 | 3.2 | 14.5 | 0.00 | 0.25 | 0.00 | 59 | 1008.4 |
| 20260504000105 | 6 | 289 | 4.8 | 14.5 | 0.00 | 0.25 | 0.00 | 59 | 1008.4 |
| 20260503235502 | 6 | 259 | 1.6 | 17.7 | 0.00 | 0.25 | 0.00 | 58 | 1008.3 |
| 20260503235003 | 6 | 245 | 4.8 | 20.9 | 0.00 | 0.25 | 0.00 | 58 | 1008.3 |
| 20260503234503 | 6 | 307 | 3.2 | 20.9 | 0.00 | 0.25 | 0.00 | 58 | 1008.2 |
| 20260503234003 | 6 | 26 | 1.6 | 14.5 | 0.00 | 0.25 | 0.00 | 57 | 1008.2 |
| 20260503233502 | 7 | 254 | 4.8 | 16.1 | 0.00 | 0.25 | 0.00 | 56 | 1008.1 |
| 20260503233005 | 7 | 209 | 3.2 | 16.1 | 0.00 | 0.25 | 0.00 | 56 | 1008.1 |
| 20260503232502 | 7 | 327 | 8.0 | 24.1 | 0.00 | 0.25 | 0.00 | 55 | 1008.1 |
| 20260503232003 | 7 | 307 | 3.2 | 22.5 | 0.00 | 0.25 | 0.00 | 56 | 1008.2 |
| 20260503231502 | 7 | 115 | 6.4 | 16.1 | 0.00 | 0.25 | 0.00 | 57 | 1008.1 |
| 20260503231003 | 7 | 355 | 1.6 | 11.3 | 0.00 | 0.25 | 0.00 | 57 | 1008.1 |
| 20260503230501 | 7 | 323 | 3.2 | 9.7 | 0.00 | 0.25 | 0.00 | 58 | 1008.1 |
| 20260503230002 | 7 | 22 | 3.2 | 17.7 | 0.00 | 0.28 | 0.00 | 58 | 1008.1 |
| 20260503225503 | 7 | 292 | 8.0 | 17.7 | 0.00 | 0.28 | 0.00 | 56 | 1008.1 |
| 20260503225001 | 7 | 269 | 4.8 | 14.5 | 0.00 | 0.28 | 0.00 | 57 | 1008.0 |
| 20260503224502 | 7 | 5 | 4.8 | 16.1 | 0.00 | 0.28 | 0.00 | 57 | 1008.1 |
| 20260503224102 | 7 | 27 | 3.2 | 16.1 | 0.00 | 0.28 | 0.00 | 58 | 1008.0 |
| 20260503223600 | 7 | 296 | 4.8 | 14.5 | 0.00 | 0.28 | 0.00 | 57 | 1008.0 |
| 20260503223102 | 7 | 294 | 1.6 | 20.9 | 0.00 | 0.28 | 0.00 | 58 | 1008.0 |
| 20260503222559 | 7 | 69 | 4.8 | 20.9 | 0.00 | 0.28 | 0.00 | 56 | 1008.0 |
| 20260503222059 | 7 | 17 | 4.8 | 11.3 | 0.00 | 0.28 | 0.00 | 58 | 1007.9 |
| 20260503221601 | 7 | 235 | 3.2 | 14.5 | 0.00 | 0.28 | 0.00 | 59 | 1007.8 |
| 20260503221059 | 7 | 240 | 1.6 | 14.5 | 0.00 | 0.28 | 0.00 | 58 | 1007.8 |
| 20260503220600 | 7 | 11 | 3.2 | 12.9 | 0.00 | 0.28 | 0.00 | 58 | 1007.8 |
| 20260503220059 | 7 | 32 | 4.8 | 12.9 | 0.00 | 0.28 | 0.00 | 58 | 1007.8 |
| 20260503215558 | 7 | 27 | 3.2 | 12.9 | 0.00 | 0.36 | 0.00 | 57 | 1007.6 |
| 20260503215058 | 7 | 64 | 3.2 | 12.9 | 0.00 | 0.36 | 0.00 | 57 | 1007.7 |
| 20260503214558 | 7 | 355 | 3.2 | 14.5 | 0.00 | 0.36 | 0.00 | 56 | 1007.6 |
| 20260503214058 | 8 | 61 | 4.8 | 24.1 | 0.00 | 0.36 | 0.00 | 58 | 1007.6 |
| 20260503213557 | 7 | 350 | 4.8 | 24.1 | 0.00 | 0.36 | 0.00 | 56 | 1007.6 |
| 20260503213058 | 7 | 13 | 6.4 | 22.5 | 0.00 | 0.36 | 0.00 | 54 | 1007.6 |
| 20260503212557 | 7 | 294 | 6.4 | 22.5 | 0.00 | 0.36 | 0.00 | 57 | 1007.6 |
| 20260503212058 | 7 | 11 | 4.8 | 20.9 | 0.00 | 0.36 | 0.00 | 55 | 1007.6 |
| 20260503211559 | 8 | 32 | 8.0 | 20.9 | 0.00 | 0.36 | 0.00 | 55 | 1007.8 |
| 20260503211057 | 7 | 20 | 4.8 | 20.9 | 0.00 | 0.36 | 0.00 | 56 | 1007.6 |
| 20260503210556 | 7 | 46 | 4.8 | 14.5 | 0.00 | 0.36 | 0.00 | 56 | 1007.5 |
| 20260503210057 | 7 | 63 | 3.2 | 12.9 | 0.00 | 0.36 | 0.00 | 56 | 1007.4 |
| 20260503205559 | 7 | 346 | 1.6 | 16.1 | 0.00 | 0.36 | 0.00 | 55 | 1007.4 |
| 20260503205055 | 7 | 333 | 6.4 | 32.2 | 0.00 | 0.36 | 0.00 | 54 | 1007.4 |
| 20260503204557 | 8 | 272 | 12.9 | 32.2 | 0.00 | 0.36 | 0.00 | 53 | 1007.3 |
| 20260503204055 | 8 | 58 | 4.8 | 14.5 | 0.00 | 0.36 | 0.00 | 55 | 1007.4 |
| 20260503203555 | 7 | 11 | 3.2 | 16.1 | 0.00 | 0.36 | 0.00 | 55 | 1007.3 |
| 20260503203057 | 8 | 86 | 6.4 | 19.3 | 0.00 | 0.36 | 0.00 | 54 | 1007.4 |